Mazar-I-Sharif, Afghanistan

4:17 PM +0430 on April 19, 2018 (GMT +0430)
Mazar

Weather History for OAMS - November, 2013

Change the Weather History Date:

Saturday, November 16, 2013

  Actual Average Record
Temperature  
Mean Temperature 57 °F -  
Max Temperature 64 °F 56 °F - ()
Min Temperature 50 °F 35 °F - ()
Degree Days  
Heating Degree Days 8    
Growing Degree Days 7 (Base 50)    
Moisture  
Dew Point 24 °F    
Average Humidity 27    
Maximum Humidity 41    
Minimum Humidity 21    
Precipitation  
Precipitation 0.00 in 0.02 in - ()
Sea Level Pressure  
Sea Level Pressure 30.11 in    
Wind  
Wind Speed 5 mph ()    
Max Wind Speed 15 mph    
Max Gust Speed -    
Visibility 4.7 miles    
Events Rain    
T = Trace of Precipitation, MM = Missing Value Source: Averaged Metar Reports

Daily Weather History Graph

Daily Weather History Graph

Search for Another Location

Airport or City:

Trip Planner

Search our weather history database for the weather conditions in past years. The results will help you decide how hot, cold, wet, or windy it might be!

Date:

Astronomy

Nov. 16, 2013 Rise Set
Actual Time 6:39 AM +0430 4:51 PM +0430
Civil Twilight 6:12 AM +0430 5:19 PM +0430
Nautical Twilight 5:41 AM +0430 5:50 PM +0430
Astronomical Twilight 5:10 AM +0430 6:21 PM +0430
Moon 4:08 PM +0430 (11/16) 5:12 AM +0430 (11/16)
Length of Visible Light 11h 06m
Length of Day
10h 11m
Waxing Gibbous, 98% of the Moon is Illuminated
Nov 16
Waxing Gibbous
Nov 17
Full
Nov 26
Last Quarter
Dec 3
New
Dec 9
First Quarter

Hourly Weather History & Observations

Time (+0430) Temp. Dew Point Humidity Pressure Visibility Wind Dir Wind Speed Gust Speed Precip Events Conditions
12:20 AM 57.2 °F 19.4 °F 23% 30.01 in 6.2 mi SW 5.8 mph - N/A   Partly Cloudy
1:20 AM 57.2 °F 19.4 °F 23% 30.04 in 6.2 mi SSW 4.6 mph - N/A   Scattered Clouds
2:20 AM 57.2 °F 19.4 °F 23% 30.04 in 6.2 mi SSW 5.8 mph - N/A   Scattered Clouds
3:20 AM 59.0 °F 19.4 °F 22% 30.04 in 6.2 mi SSW 5.8 mph - N/A   Scattered Clouds
4:20 AM 53.6 °F 19.4 °F 26% 30.04 in 6.2 mi WNW 8.1 mph - N/A   Partly Cloudy
5:20 AM 53.6 °F 19.4 °F 26% 30.04 in 6.2 mi SW 4.6 mph - N/A   Partly Cloudy
6:20 AM 55.4 °F 17.6 °F 23% 30.06 in 6.2 mi SSW 2.3 mph - N/A   Partly Cloudy
7:20 AM 51.8 °F 19.4 °F 28% 30.09 in 5.0 mi Calm Calm - N/A   Scattered Clouds
7:50 AM 50.0 °F 19.4 °F 30% 30.09 in 2.2 mi NNW 2.3 mph - N/A   Smoke
8:20 AM 53.6 °F 21.2 °F 28% 30.12 in 1.9 mi West 1.2 mph - N/A   Smoke
9:20 AM 57.2 °F 23.0 °F 27% 30.12 in 1.9 mi Variable 1.2 mph - N/A   Smoke
10:20 AM 62.6 °F 23.0 °F 22% 30.12 in 3.1 mi WNW 8.1 mph - N/A   Mostly Cloudy
11:20 AM 64.4 °F 23.0 °F 21% 30.12 in 3.7 mi NW 11.5 mph - N/A   Mostly Cloudy
12:20 PM 62.6 °F 24.8 °F 24% 30.12 in 3.7 mi WNW 9.2 mph - N/A   Mostly Cloudy
1:20 PM 62.6 °F 26.6 °F 26% 30.12 in 5.0 mi West 9.2 mph - N/A   Mostly Cloudy
2:20 PM 62.6 °F 26.6 °F 26% 30.12 in 5.0 mi West 11.5 mph - N/A   Overcast
3:20 PM 62.6 °F 26.6 °F 26% 30.12 in 5.0 mi West 11.5 mph - N/A   Overcast
4:20 PM 62.6 °F 24.8 °F 24% 30.15 in 5.0 mi West 5.8 mph - N/A   Overcast
5:20 PM 60.8 °F 24.8 °F 25% 30.15 in 3.7 mi West 3.5 mph - N/A   Overcast
6:20 PM 60.8 °F 26.6 °F 27% 30.15 in 4.3 mi WSW 3.5 mph - N/A Rain Light Rain
7:20 PM 62.6 °F 32.0 °F 32% 30.15 in 5.0 mi West 15.0 mph - N/A   Mostly Cloudy
8:20 PM 60.8 °F 30.2 °F 31% 30.15 in 5.0 mi West 10.4 mph - N/A   Mostly Cloudy
9:20 PM 60.8 °F 32.0 °F 34% 30.18 in 5.0 mi West 9.2 mph - N/A   Mostly Cloudy
10:20 PM 57.2 °F 28.4 °F 33% 30.21 in 5.0 mi NNE 5.8 mph - N/A   Mostly Cloudy
11:20 PM 55.4 °F 32.0 °F 41% 30.21 in 5.0 mi NE 1.2 mph - N/A   Mostly Cloudy